FW6583 Weather Reports


Display with metric or nautical units.
time (UTC)temp
F
wind
direction
speed
MPH
gust
MPH
rain 1hr
in
rain 24hr
in
rain mn
in
humidity
%
barometer
mb
20260505050526 62 17 0.0 3.0 0.00 0.00 0.00 64 1012.0
20260505041550 62 0 0.0 3.0 0.00 0.00 0.00 65 1012.0
20260505041023 62 0 0.0 0.0 0.00 0.00 0.00 66 1011.9
20260505040530 61 0 0.0 0.0 0.00 0.00 0.00 66 1012.0
20260505040048 61 0 0.0 0.0 0.00 0.00 0.00 66 1012.0
20260505035527 61 0 0.0 0.0 0.00 0.00 0.00 67 1012.0
20260505035023 61 0 0.0 0.0 0.00 0.00 0.00 67 1012.0
20260505034543 61 0 0.0 0.0 0.00 0.00 0.00 67 1012.0
20260505034027 61 0 0.0 1.0 0.00 0.00 0.00 67 1012.1
20260505033523 61 0 0.0 1.0 0.00 0.00 0.00 67 1012.1
20260505033041 61 23 0.0 1.0 0.00 0.00 0.00 66 1011.9
20260505032523 61 18 0.0 1.0 0.00 0.00 0.00 66 1012.0
20260505032023 62 0 0.0 1.0 0.00 0.00 0.00 66 1011.9
20260505031539 62 18 0.0 1.0 0.00 0.00 0.00 66 1012.0
20260505031023 62 18 0.0 1.0 0.00 0.00 0.00 66 1012.1
20260505030523 62 18 0.0 1.0 0.00 0.00 0.00 66 1012.1
20260505030105 62 0 0.0 2.0 0.00 0.00 0.00 66 1012.1
20260505025526 62 18 0.0 2.0 0.00 0.00 0.00 66 1012.3
20260505025022 62 0 0.0 2.0 0.00 0.00 0.00 66 1012.2
20260505024540 62 0 0.0 1.0 0.00 0.00 0.00 66 1012.2
20260505024022 62 0 0.0 1.0 0.00 0.00 0.00 66 1012.2
20260505023523 62 0 0.0 2.0 0.00 0.00 0.00 66 1012.2
20260505023038 62 0 0.0 2.0 0.00 0.00 0.00 66 1012.3
20260505022524 62 0 0.0 1.0 0.00 0.00 0.00 66 1012.2
20260505022023 62 0 0.0 1.0 0.00 0.00 0.00 66 1012.2
20260505021542 62 0 0.0 1.0 0.00 0.00 0.00 65 1012.2
20260505021023 62 0 0.0 1.0 0.00 0.00 0.00 65 1012.3
20260505020523 63 0 0.0 1.0 0.00 0.00 0.00 65 1012.3
20260505020044 63 0 0.0 1.0 0.00 0.00 0.00 64 1012.3
20260505015523 63 87 0.0 1.0 0.00 0.00 0.00 64 1012.4
20260505015023 63 0 0.0 1.0 0.00 0.00 0.00 63 1012.4
20260505014600 64 0 0.0 1.0 0.00 0.00 0.00 63 1012.4
20260505014026 64 88 0.0 1.0 0.00 0.00 0.00 63 1012.5
20260505013526 64 87 0.0 1.0 0.00 0.00 0.00 62 1012.5
20260505013051 64 83 0.0 1.0 0.00 0.00 0.00 62 1012.5
20260505012528 64 82 0.0 1.0 0.00 0.00 0.00 62 1012.5
20260505012026 64 79 0.0 1.0 0.00 0.00 0.00 62 1012.4
20260505011542 65 79 0.0 1.0 0.00 0.00 0.00 62 1012.6
20260505011024 65 81 0.0 4.0 0.00 0.00 0.00 62 1012.4
20260505010525 65 0 0.0 4.0 0.00 0.00 0.00 62 1012.5
20260505010051 65 6 0.0 3.0 0.00 0.00 0.00 62 1012.4
20260505005529 65 0 0.0 3.0 0.00 0.00 0.00 62 1012.3
20260505005026 65 41 0.0 2.0 0.00 0.00 0.00 62 1012.3
20260505004549 66 0 0.0 2.0 0.00 0.00 0.00 61 1012.2
20260505004026 66 250 0.0 2.0 0.00 0.00 0.00 61 1012.1
20260505003527 66 20 0.0 1.0 0.00 0.00 0.00 60 1012.1
20260505003054 66 0 0.0 1.0 0.00 0.00 0.00 60 1012.0
20260505002526 66 70 0.0 0.0 0.00 0.00 0.00 60 1011.9
20260505002026 67 0 0.0 3.0 0.00 0.00 0.00 59 1011.9
20260505001542 67 0 0.0 3.0 0.00 0.00 0.00 59 1011.9
20260505001026 67 219 0.0 2.0 0.00 0.00 0.00 59 1012.0
20260505000526 67 262 0.0 2.0 0.00 0.00 0.00 59 1012.1
20260505000039 67 0 0.0 1.0 0.00 0.00 0.00 58 1012.0
20260504235526 67 0 0.0 1.0 0.00 0.00 0.00 58 1012.0
20260504235026 67 0 0.0 1.0 0.00 0.00 0.00 58 1012.2
20260504234538 67 0 0.0 1.0 0.00 0.00 0.00 57 1012.0
20260504234026 68 0 0.0 2.0 0.00 0.00 0.00 57 1012.0
20260504233525 68 0 0.0 3.0 0.00 0.00 0.00 57 1011.9
20260504233045 68 0 0.0 3.0 0.00 0.00 0.00 57 1011.9
20260504232530 69 264 1.0 4.0 0.00 0.00 0.00 56 1011.9
20260504232025 69 19 0.0 4.0 0.00 0.00 0.00 57 1011.9
20260504231542 69 30 0.0 4.0 0.00 0.00 0.00 57 1011.8
20260504231026 69 43 1.0 4.0 0.00 0.00 0.00 56 1011.8
20260504230526 69 0 1.0 4.0 0.00 0.00 0.00 54 1011.7
20260504230041 70 296 0.0 3.0 0.00 0.00 0.00 55 1011.8
20260504225525 70 2 1.0 4.0 0.00 0.00 0.00 54 1011.8
20260504225026 70 357 0.0 5.0 0.00 0.00 0.00 53 1011.8
20260504224539 70 335 1.0 5.0 0.00 0.00 0.00 54 1011.8
20260504224026 70 91 2.0 7.0 0.00 0.00 0.00 55 1011.9
20260504223526 70 314 1.0 7.0 0.00 0.00 0.00 55 1012.0
20260504223059 69 15 2.0 8.0 0.00 0.00 0.00 54 1012.1
20260504222526 69 17 1.0 8.0 0.00 0.00 0.00 55 1012.2
20260504222025 70 302 1.0 4.0 0.00 0.00 0.00 54 1012.2
20260504221546 70 119 2.0 4.0 0.00 0.00 0.00 54 1012.3
20260504221025 70 294 2.0 5.0 0.00 0.00 0.00 53 1012.1
20260504220525 70 289 1.0 8.0 0.00 0.00 0.00 52 1012.0
20260504220046 70 297 2.0 8.0 0.00 0.00 0.00 52 1012.0
20260504215523 70 290 2.0 8.0 0.00 0.00 0.00 51 1011.9
20260504215029 71 37 2.0 5.0 0.00 0.00 0.00 52 1011.9
20260504214544 71 325 1.0 4.0 0.00 0.00 0.00 54 1011.7
20260504214029 71 241 1.0 6.0 0.00 0.00 0.00 53 1011.7
20260504213526 71 264 2.0 6.0 0.00 0.00 0.00 52 1011.6
20260504213047 71 316 1.0 4.0 0.00 0.00 0.00 50 1011.7
20260504212526 71 36 2.0 4.0 0.00 0.00 0.00 52 1011.7
20260504212026 71 307 1.0 4.0 0.00 0.00 0.00 51 1011.9
20260504211604 70 322 1.0 4.0 0.00 0.00 0.00 52 1011.8
20260504211026 70 100 1.0 5.0 0.00 0.00 0.00 52 1011.9
20260504210526 70 134 1.0 6.0 0.00 0.00 0.00 53 1011.7
20260504210043 70 66 2.0 9.0 0.00 0.00 0.00 51 1011.7
20260504205525 70 38 2.0 9.0 0.00 0.00 0.00 50 1011.6
20260504205025 71 283 2.0 9.0 0.00 0.00 0.00 51 1011.6
20260504204543 72 285 1.0 7.0 0.00 0.00 0.00 50 1011.6
20260504204025 72 23 2.0 11.0 0.00 0.00 0.00 48 1011.7
20260504203525 72 271 3.0 11.0 0.00 0.00 0.00 47 1011.7
20260504203045 73 270 3.0 11.0 0.00 0.00 0.00 48 1011.8
20260504202527 72 35 2.0 6.0 0.00 0.00 0.00 49 1011.7
20260504202027 71 11 2.0 6.0 0.00 0.00 0.00 49 1011.7
20260504201540 71 1 2.0 6.0 0.00 0.00 0.00 50 1011.7
20260504201027 71 241 1.0 7.0 0.00 0.00 0.00 50 1011.8
20260504200526 72 303 2.0 7.0 0.00 0.00 0.00 50 1011.9
20260504200039 72 289 2.0 7.0 0.00 0.00 0.00 49 1011.9
20260504195526 72 30 3.0 8.0 0.00 0.00 0.00 49 1011.9
20260504195027 72 296 3.0 8.0 0.00 0.00 0.00 48 1011.9
20260504194547 72 354 2.0 6.0 0.00 0.00 0.00 50 1012.0
20260504194026 72 34 3.0 6.0 0.00 0.00 0.00 50 1011.9
20260504193526 71 323 3.0 6.0 0.00 0.00 0.00 51 1012.1
20260504193044 71 302 3.0 8.0 0.00 0.00 0.00 50 1012.0
20260504192524 71 20 2.0 8.0 0.00 0.00 0.00 50 1012.2
20260504192025 71 22 2.0 5.0 0.00 0.00 0.00 51 1012.2
20260504191601 71 6 3.0 10.0 0.00 0.00 0.00 51 1012.2
20260504191026 71 88 3.0 10.0 0.00 0.00 0.00 52 1012.3
20260504190526 71 118 2.0 6.0 0.00 0.00 0.00 51 1012.3
20260504190045 71 317 2.0 6.0 0.00 0.00 0.00 52 1012.4
20260504185529 71 316 2.0 6.0 0.00 0.00 0.00 51 1012.5
20260504185026 71 79 2.0 6.0 0.00 0.00 0.00 51 1012.5
20260504184547 70 331 3.0 6.0 0.00 0.00 0.00 51 1012.5
20260504184024 70 43 3.0 8.0 0.00 0.00 0.00 52 1012.8
20260504183524 70 192 3.0 8.0 0.00 0.00 0.00 52 1012.9
20260504183039 70 295 2.0 9.0 0.00 0.00 0.00 54 1013.0
20260504182524 70 39 2.0 9.0 0.00 0.00 0.00 53 1012.8
20260504182024 70 60 3.0 9.0 0.00 0.00 0.00 53 1012.8
20260504181548 70 32 3.0 11.0 0.00 0.00 0.00 54 1012.9
20260504181024 69 60 3.0 11.0 0.00 0.00 0.00 53 1012.9
20260504180524 69 18 2.0 7.0 0.00 0.00 0.00 54 1012.8
20260504180044 69 296 2.0 7.0 0.00 0.00 0.00 54 1012.8
20260504175524 69 328 2.0 7.0 0.00 0.00 0.00 53 1013.0
20260504175029 69 30 3.0 9.0 0.00 0.00 0.00 54 1013.1
20260504174545 68 302 2.0 9.0 0.00 0.00 0.00 55 1013.1
20260504174024 68 359 3.0 9.0 0.00 0.00 0.00 53 1013.1
20260504173524 68 4 2.0 8.0 0.00 0.00 0.00 55 1013.0
20260504173042 68 10 4.0 8.0 0.00 0.00 0.00 53 1013.1
20260504172524 68 341 2.0 8.0 0.00 0.00 0.00 55 1013.0
20260504172025 68 28 3.0 8.0 0.00 0.00 0.00 54 1013.1
20260504171541 68 45 3.0 6.0 0.00 0.00 0.00 55 1013.3
20260504171025 68 359 3.0 6.0 0.00 0.00 0.00 53 1013.4
20260504170524 68 27 2.0 6.0 0.00 0.00 0.00 54 1013.4
20260504151027 62 304 1.0 5.0 0.00 0.00 0.00 56 1015.2
20260504150526 62 3 1.0 5.0 0.00 0.00 0.00 55 1015.1
20260504141024 58 45 2.0 6.0 0.00 0.00 0.00 58 1015.1
20260504140525 58 344 0.0 4.0 0.00 0.00 0.00 60 1015.2
20260504130524 54 58 0.0 5.0 0.00 0.00 0.00 65 1015.3
20260504110524 48 0 0.0 1.0 0.00 0.00 0.00 71 1015.8
20260504100524 48 0 0.0 1.0 0.00 0.00 0.00 70 1016.0
20260504081538 49 0 0.0 2.0 0.00 0.00 0.00 63 1016.7
20260504081026 49 0 0.0 2.0 0.00 0.00 0.00 62 1016.5
20260504080524 49 27 0.0 3.0 0.00 0.00 0.00 62 1016.6